Flag for United Kingdom Weather past 2 weeks in Chichester, England, United Kingdom

Now
45 °F

Cool.


Feels Like: 39 °F
Forecast: 45 / 53 °F
Wind: 14 mph from West

Location: Thorney Island

Current Time: Mar 30, 2015 at 5:45:53 AM

Latest Report: Mar 30, 2015 at 5:00 AM


Visibility: 11 mi

Pressure: 29.71 "Hg

Humidity: 78%

Dew point: 39 °F

Location of ChichesterLocation

Historic Weather in Chichester — Graph

°F

Chichester temperature yesterday

Maximum temperature yesterday: 56 °F (at 5:00 PM)
Minimum temperature yesterday: 48 °F (at 12:00 AM)
Average temperature yesterday: 51 °F

Past Weeks' High & Low Weather Summary

 TemperatureHumidityPressure
High57 °F (Mar 26, 3:00 PM)99% (Mar 28, 2:00 AM)30.51 "Hg (Mar 28, 2:00 AM)
Low32 °F (Mar 22, 11:00 PM)47% (Mar 26, 6:00 PM)29.47 "Hg (Mar 29, 2:00 PM)
Average45 °F80%30.11 "Hg
* Reported Mar 15 2:00 AM — Mar 30 3:00 AM, Chichester, Weather by CustomWeather, © 2015

Note: Actual official high and low records may vary slightly from our data, if they occured in-between our weather recording intervals... More about our weather records

Advertising

Chichester weather history for previous 24 hours

 ConditionsComfort  
Time TempWeatherWind HumidityBarometerVisibility
3:00 AM
Mon, Mar 30
47 °FCool.14 mph81%29.68 "Hg12 mi
2:00 AM48 °FCool.15 mph80%29.65 "Hg10 mi
1:00 AM48 °FCool.12 mph84%29.65 "Hg11 mi
12:00 AM49 °FCool.17 mph80%29.61 "Hg10 mi
11:00 PM
Sun, Mar 29
50 °FCool.20 mph78%29.60 "Hg9 mi
9:00 PM51 °FCool.22 mph67%29.58 "Hg16 mi
8:00 PM52 °FCool.24 mph65%29.56 "Hg15 mi
7:00 PM54 °FCool.26 mph58%29.56 "Hg18 mi
6:00 PM55 °FCool.26 mph62%29.50 "Hg12 mi
5:00 PM56 °FCool.25 mph66%29.47 "Hg12 mi
4:00 PM55 °FCool.25 mph81%29.47 "Hg7 mi
3:00 PM53 °FCool.32 mph91%29.47 "Hg6 mi
2:00 PM52 °FCool.37 mph92%29.47 "Hg4 mi
12:00 PM52 °FSmoke.39 mph87%29.50 "Hg4 mi
11:00 AM52 °FSmoke.38 mph91%29.55 "Hg4 mi
9:00 AM51 °FCool.30 mph94%29.61 "Hg3 mi
8:00 AM50 °FCool.26 mph94%29.64 "Hg8 mi
7:00 AM50 °FCool.25 mph93%29.66 "Hg8 mi
6:00 AM49 °FFog.20 mph95%29.70 "Hg6 mi
5:00 AM49 °FCool.22 mph91%29.72 "Hg6 mi
Weather by CustomWeather, © 2015

See weather overviewHow to use our weather pages